This is the latest recevied weather packets stored in our database for station/object WX7EM. If no packets are shown the sender has not sent any weather packets the latest 10 day(s).
| Time | Temp. | Humidity | Pressure | Rain* | Wind** | Luminosity | Snow |
|---|---|---|---|---|---|---|---|
| 1777667224 | 17.78° C | 73% | 1016.1 hPa | 0 mm | - | 639 W/m² | - |
| 1777666921 | 17.22° C | 74% | 1016.2 hPa | 0 mm | - | 707 W/m² | - |
| 1777666618 | 17.22° C | 73% | 1016.2 hPa | 0 mm | - | 683 W/m² | - |
| 1777666314 | 16.67° C | 74% | 1016.4 hPa | 0 mm | - | 759 W/m² | - |
| 1777666011 | 16.67° C | 74% | 1016.3 hPa | 0 mm | - | 705 W/m² | - |
| 1777665709 | 16.67° C | 75% | 1016.4 hPa | 0 mm | - | 603 W/m² | - |
| 1777665406 | 16.67° C | 75% | 1016.3 hPa | 0 mm | - | 705 W/m² | - |
| 1777665101 | 16.67° C | 74% | 1016.4 hPa | 0 mm | - | 724 W/m² | - |
| 1777664797 | 16.11° C | 76% | 1016.7 hPa | 0 mm | - | 764 W/m² | - |
| 1777664493 | 16.11° C | 78% | 1016.8 hPa | 0 mm | - | 750 W/m² | - |
| 1777664191 | 16.11° C | 76% | 1016.7 hPa | 0 mm | - | 732 W/m² | - |
| 1777663889 | 15.56° C | 76% | 1016.6 hPa | 0 mm | - | 768 W/m² | - |
| 1777663586 | 15.56° C | 76% | 1016.7 hPa | 0 mm | - | 729 W/m² | - |
| 1777663283 | 15.56° C | 76% | 1016.8 hPa | 0 mm | - | 701 W/m² | - |
| 1777662980 | 15° C | 77% | 1016.5 hPa | 0 mm | - | 642 W/m² | - |
| 1777662677 | 15.56° C | 77% | 1016.7 hPa | 0 mm | - | 730 W/m² | - |
| 1777662374 | 15.56° C | 76% | 1016.7 hPa | 0 mm | - | 660 W/m² | - |
| 1777662069 | 15.56° C | 77% | 1016.7 hPa | 0 mm | - | 750 W/m² | - |
| 1777661765 | 15.56° C | 77% | 1016.8 hPa | 0 mm | - | 726 W/m² | - |
| 1777661461 | 14.44° C | 78% | 1016.7 hPa | 0 mm | - | 704 W/m² | - |
| 1777661157 | 15° C | 78% | 1016.8 hPa | 0 mm | - | 577 W/m² | - |
| 1777660852 | 14.44° C | 78% | 1016.8 hPa | 0 mm | - | 646 W/m² | - |
| 1777660549 | 14.44° C | 79% | 1016.8 hPa | 0 mm | - | 473 W/m² | - |
| 1777660245 | 14.44° C | 80% | 1016.9 hPa | 0 mm | - | 657 W/m² | - |
| 1777659942 | 14.44° C | 80% | 1017 hPa | 0 mm | - | 638 W/m² | - |
* Rain latest hour (hover to see other rain measurements)
** Current wind speed in m/s (hover to see current wind gust speed)